User: anonymous   Login
Location: Newark
(35.2161°N, 26.1013°E)
Time: 13:49:59
(UTC+00:00)
Language:

BEESAT 2 - Orbit

View from above orbital plane
View from above orbital plane
View from above satellite
View from above satellite

Ground track
Ground track

The orbit data is extracted from the following two-line orbital elements,

1 39136U 13015G   20021.19927904  .00000603  00000-0  39867-4 0  9994
2 39136  64.8711  64.6046 0030935 279.1797  80.5830 15.17286552373019
Epoch (UTC): 21 January 2020 04:46:57
Eccentricity: 0.0030935
inclination: 64.8711°
perigee height: 493 km
apogee height: 535 km
right ascension of ascending node: 64.6046°
argument of perigee: 279.1797°
revolutions per day: 15.17286552
mean anomaly at epoch: 80.5830°
orbit number at epoch: 37301

The dashed part of the orbit path shows where the satellite is in the earth's shadow,  

DLR